Miscellaneous Local Product
Issued by NWS North Platte, NE

Home | Current Version | Previous Version | Text Only | Print | Product List | Glossary On
Versions: 1 2 3 4 5 6 7 8 9 10 11 12 13 14 15 16 17 18 19 20 21 22 23 24 25 26 27 28 29 30 31 32 33 34 35 36 37 38 39 40 41 42 43 44 45 46 47 48 49 50
000
AXUS43 KLBF 221710
MISLBF


WESTERN AND NORTH CENTRAL NEBRASKA HOURLY WEATHER ROUNDUP
NATIONAL WEATHER SERVICE NORTH PLATTE NE
1200 PM CDT MON SEP 22 2014

***STATIONS NOT REPORTING VARIABLES SUCH AS SKY/WEATHER OR
PRESSURE ARE PROVIDED BY THE NEBRASKA DEPARTMENT OF
ROADS...RAWS...AND APRS NETWORKS...AND ARE NOT UNDER
NATIONAL WEATHER SERVICE QUALITY CONTROL***

...OBSERVATIONS IN AND NEAR THE EASTERN PANHANDLE OF NEBRASKA...

CITY           SKY/WX    TMP DP  RH WIND       PRES   REMARKS
PINE RIDGE     MOSUNNY   73  48  41 S23G33    30.08F
CHADRON        PTSUNNY   71  48  43 S18       30.06F
ALLIANCE       CLOUDY    66  46  48 S20       30.14F
SIDNEY         CLOUDY    70  49  47 S24G30    30.18F
WHITECLAY        N/A     72  47  40 S18         N/A
RUSHVILLE        N/A     74  43  32 S30         N/A
CRESCENT LAKE    N/A     66  46  48 S13G22      N/A
LISCO            N/A     65  50  57 E15         N/A
BIG SPRINGS      N/A     63  46  54 S12         N/A
$$

...OBSERVATIONS IN NORTH CENTRAL NEBRASKA...

CITY           SKY/WX    TMP DP  RH WIND       PRES   REMARKS
VALENTINE      PTSUNNY   69  43  38 S21G26    30.17F
THEDFORD       CLOUDY    65  44  46 S17       30.22F
AINSWORTH      PTSUNNY   67  44  42 S16       30.20F
O`NEILL        SUNNY     70  50  48 S14       30.25F
ORD            MOSUNNY   68  48  48 S14       30.25F
BROKEN BOW     CLOUDY    66  46  48 S17G28    30.26F
SPRINGVIEW       N/A     70  49  47 SW6G13      N/A
ROSE             N/A     73  52  47 SE16        N/A
NEWPORT          N/A     72  49  43 S17         N/A
COMSTOCK         N/A     73  51  45 S9          N/A
CHAMBERS         N/A     71  49  45 SW6G18      N/A
$$

...OBSERVATIONS IN SOUTHWEST NEBRASKA AND FAR NORTHEAST COLORADO...

CITY           SKY/WX    TMP DP  RH WIND       PRES   REMARKS
WRAY           RAIN      64  52  65 S10G17    30.22F
HOLYOKE        RAIN      63  48  59 S12G21    30.21F
IMPERIAL       CLOUDY    67  42  40 S21       30.23S
OGALLALA       LGT RAIN  63  49  59 S14G21    30.21R
NORTH PLATTE   PTSUNNY   69  46  43 SE13      30.22F
MCCOOK         LGT RAIN  72  42  34 S22       30.25F
LEXINGTON      PTSUNNY   69  49  49 S17       30.27F
PAXTON           N/A     67  46  46 S12         N/A
SUTHERLAND       N/A     71  43  36 S15         N/A
BRADY            N/A     66  48  52 CALM        N/A
GOTHENBURG       N/A     63  44  50 S8          N/A
CALLAWAY         N/A     62  50  65 S20         N/A
$$

...SOME WEATHER OBSERVATIONS FROM AROUND THE REGION...

CITY           SKY/WX    TMP DP  RH WIND       PRES   REMARKS
DENVER         CLOUDY    62  56  80 S9        30.19F
LARAMIE        MOSUNNY   67  43  41 SW16      30.25F
CHEYENNE       MOSUNNY   69  53  56 S12       30.21S
SCOTTSBLUFF    LGT RAIN  58  53  84 SE8       30.13F
RAPID CITY     SUNNY     69  45  41 S20       30.03F
PIERRE         MOSUNNY   71  46  40 SE15      30.11F
WINNER         FAIR      75  44  33 S20       30.16F
SIOUX FALLS    MOSUNNY   68  47  46 SW9       30.25F
OMAHA          MOSUNNY   67  50  54 S6        30.31F
GRAND ISLAND   SUNNY     69  47  45 S12       30.29F
KANSAS CITY    MOSUNNY   67  50  54 VRB3      30.32F
WICHITA        PTSUNNY   73  44  35 SE9       30.31F
HAYS           SUNNY     72  48  43 S10G21    30.31F
LIBERAL        CLOUDY    70  43  37 S13G20    30.34S
GOODLAND       MOSUNNY   73  44  35 S26G37    30.24F
$$



USA.gov is the U.S. government's official web portal to all federal, state and local government web resources and services.